Location: Les Jeannots
(43.2262°N, 5.5774°E)
Time: 17:56:13
(UTC+00:00)

Cosmos 2058 - Pass Details

Date: 05 July 2020
Orbit: 562 x 584 km, 82.5° (Epoch: 12 August)

Event Time Altitude Azimuth Distance (km) Brightness Sun altitude
Exits shadow 21:25:02 26° 106° (ESE) 1,153 4.0 -16.9°
Maximum altitude 21:25:40 27° 90° (E) 1,120 4.1 -17.0°
Drops below altitude 10° 21:29:11 10° 32° (NNE) 1,887 5.9 -17.3°
Sets 21:31:36 0° 20° (NNE) 2,786 7.0 -17.6°
